Regional Weather Roundup
Issued by NWS Green Bay, WI

Home | Current Version | Previous Version | Graphics & Text | Print | Product List | Glossary Off
Versions: 1 2 3 4 5 6 7 8 9 10 11 12 13 14 15 16 17 18 19 20 21 22 23 24 25 26 27 28 29 30 31 32 33 34 35 36 37 38 39 40 41 42 43 44 45 46 47 48 49 50

000
ASUS43 KGRB 061010
RWRGRB

NORTH-CENTRAL AND NORTHEAST WISCONSIN REGIONAL WEATHER ROUNDUP
NATIONAL WEATHER SERVICE GREEN BAY WI
400 AM CST FRI MAR 06 2015

WIZ005-009-010>012-018-019-061100-
NORTH CENTRAL WISCONSIN

CITY           SKY/WX    TMP DP  RH WIND       PRES   REMARKS
IRONWOOD       CLEAR      7   0  72 SW14G23   30.03F WCI -10
MANITOWISH WTR CLEAR     -1  -5  81 S7        30.09F WCI -14
ARBOR VITAE    CLEAR     -2  -8  78 S7        30.11F WCI -16
EAGLE RIVER    CLEAR     -1  -8  74 SW6       30.11F WCI -13
LAND O LAKES   CLEAR     -3  -8  80 S5        30.10F WCI -14
RHINELANDER    CLEAR     -1  -6  79 SW12      30.14F WCI -18
PHILLIPS       CLEAR     -2  -6  83 S7        30.12F WCI -16
ANTIGO         PTCLDY    -3  -8  81 SW10      30.19F WCI -20
TOMAHAWK       PTCLDY    -4  -8  82 CALM      30.16F
MERRILL        PTCLDY    -9 -13  80 CALM      30.20F
$$

WIZ013-073-061100-
NORTHEAST WISCONSIN

CITY           SKY/WX    TMP DP  RH WIND       PRES   REMARKS
IRON MOUNTAIN  PTCLDY    -1 -10  65 S7        30.16F WCI -14
MARINETTE      PTCLDY     1  -8  66 SW6       30.28F WCI -10
OCONTO         PTCLDY     1  -7  69 SW6       30.31F WCI -10
$$

WIZ017-030-035>037-045-061100-
CENTRAL WISCONSIN

CITY           SKY/WX    TMP DP  RH WIND       PRES   REMARKS
MEDFORD        PTCLDY     0  -5  78 S8        30.17F WCI -14
WAUSAU         MOCLDY    -2  -7  79 SE5       30.22F WCI -12
MOSINEE        MOCLDY    -2  -6  84 S8        30.24F WCI -17
MARSHFIELD     MOCLDY    -3  -8  79 S3        30.22F
WISC RAPIDS    MOCLDY    -4 -11  72 S5        30.28F WCI -15
STEVENS POINT  MOCLDY    -4  -8  79 S3        30.27F
WAUPACA        PTCLDY     0  -7  72 S5        30.31F WCI -10
SHAWANO        PTCLDY     2  -6  69 CALM      30.30F
CLINTONVILLE   PTCLDY     1  -6  71 S7        30.29F WCI -11
$$

WIZ038-039-048-051-061100-
FOX VALLEY

CITY           SKY/WX    TMP DP  RH WIND       PRES   REMARKS
NWS GREEN BAY  PTCLDY     1  -6  72 SW6       30.33F WCI -10
APPLETON       PTCLDY     1  -8  66 S8        30.31F WCI -12
OSHKOSH        PTCLDY     2  -6  69 S10       30.33F WCI -14
FOND DU LAC    PTCLDY     4  -6  63 SW10      30.35F WCI -11
$$

WIZ022-050-052-061100-
EAST CENTRAL WISCONSIN

CITY           SKY/WX    TMP DP  RH WIND       PRES   REMARKS
STURGEON BAY   PTCLDY     5  -8  56 SW10      30.32F WCI -10
MANITOWOC      PTCLDY     2  -5  72 SW7       30.35F WCI -11
SHEBOYGAN      PTCLDY    -1  -8  72 SW10      30.36F WCI -17
$$

LMZ563-521-522-541>543-061100-
LAKESHORE

STATION/POSITION TIME  TEMP    WIND        PRES    VSBY  WAVE
                       AIR SEA DIR/SP/G                  HT/PER
                 (UTC) (F)     (DEG/KT/KT) (MB)    (MI)  (FT/S)
SHEBOYGAN LKSHOR 1000    6     210/ 10/ 11 1030.3F
KEWAUNEE LKSHORE 1000                      1026.4F
NORTHPORT PIER   1000    7     230/  7/ 16 1025.7S
SISTER BAY LKSHO 0900    6     250/ 15/ 19   N/A
CHAMBERS ISLAND  1000    1     180/  6/ 11 1025.7F
MENOMINEE LKSHOR 1000                      1026.6F
$$



USA.gov is the U.S. government's official web portal to all federal, state and local government web resources and services.